sat.trackr.live / text

‹ back to catalog

STARLINK-11630 [DTC]

NORAD 63111 · 2025-039H

PAYLOAD ACTIVE UNKNOWN

§ Identity

Operator
Country
US
Launch date
2025-02-27
Launch site
AFETR
Launch vehicle
Mass (kg)
RCS (m²)

Purposes: comms

External: N2YO · Heavens-Above · Gunter

§ Orbital elements

Epoch: 2026-05-25T03:01:00.967296Z

Period
91.68 min
Inclination
42.9993°
Eccentricity
0.0001746
Mean motion
15.70633459 rev/d
Perigee alt
355.9 km
Apogee alt
358.3 km
Semi-major
6,735.2 km
B*
3.1601e-3
RAAN
136.3983°
Arg perigee
203.0798°
Mean anomaly
156.9991°
Rev number
7,163

§ Raw data

STARLINK-11630 [DTC]1 63111U 25039H   26145.12570564  .00422683  00000+0  31601-2 0  99962 63111  42.9993 136.3983 0001746 203.0798 156.9991 15.70633459 71630

JSON: /api/v1/satellites/63111 · /tle

For live sub-satellite position, see the globe view (requires WebGL).

§ Visibility from observer

Set your observer location to see the next 7 days of passes ≥ 10°. The values pass through the URL so the page stays shareable.

No JS? Fill the form by hand. The geolocation button needs JavaScript.